OPS 4682 DEB, 19242

Orbit data source: Space-Track

OPS 4682 DEB, 19242 is space debris in LEO originally from a launch on Sat, 03 Apr 1965 UTC launched from the Air Force Western Test Range (AFWTR). Debris objects in space refer to the collection of defunct objects orbiting the Earth. Examples of debris include non-operational satellites, rocket bodies, and fragments generated from explosions, collisions, or faulty payload assembly.

Loading next visibility...
Identifier
19242, 1965-027AS
Orbit
LEO
Country
Flag of USUS
Related business
Manufacturer
Unknown
Mission
Spacecraft
Bus & Motor
Unknown
Mass
Unknown
Launch date (UTC)
1965-04-03 (61 years ago)
Launch vehicle
Unknown
Launch site
Air Force Western Test Range (AFWTR)
Object type
Payload
Rocket body
Debris
Shape & HBR
Unknown shape, 0.1 m
Radar Cross Section
Medium (>0.1 m² and <1 m²)

Expand to show TLE details & history
Last TLE update: 1 day ago

TLE from 1 day ago
0 OPS 4682 DEB
1 19242U 65027AS  26174.85006687 -.00000683  00000-0 -22357-2 0  9998
2 19242  90.2648  26.2598 0030675  91.8858 280.8354 13.01748876638193
Epoch: 2026-06-23T20:24Z
TLE epoch observation values (Epoch: 2026-06-23T20:24:05.777Z)
Latitude
12.33496°
Longitude
168.1624°
Altitude
1,253.045 km
Speed
7.232 km/s
True Right ascension
01h 44m 48s
True Declination
12° 16' 05"
Sunlit
Object was in daylight at epoch
Visualization orbit readout
Latitude
Unknown
Longitude
Unknown
Altitude
Unknown
Speed
Unknown
Apparent Right ascension
Unknown
Apparent Declination
Unknown
Sunlit
N/A
Visualization observer readout
Local Sidereal Time
08:58:10
Azimuth
Unknown
Elevation
Unknown
Doppler factor
Unknown
Orbital elements
Apogee altitude
1,275.773 km
Perigee altitude
1,228.96 km
Semi-major axis
7,630.504 km
Eccentricity
0.00307
Inclination
90.2648°
RAAN
26.2598°
Arg. of periapsis
91.8858°
True anomaly
280.48991°
Mean anomaly
280.8354°
Eccentric anomaly
280.66268°
Mean motion
3.25622 °/min
Orbital period
110.56 mins
BSTAR
-0.0022357
Loading maneuver chart data...
Computing Atmospheric mass density...
Loading historical data...
Loading historical data...
Loading historical data...
Loading historical data...
Loading historical data...
Loading historical data...
Loading historical data...

Documentation

Showing up to 5 results
|